Fryeburg, ME

9:30 PM EST on February 25, 2017 (GMT -0500)
Eastern Slopes Regional

Weather History for KIZG - April, 2013

Change the Weather History Date:

Tuesday, April 30, 2013

  Actual Average Record
Temperature  
Mean Temperature 52 °F -  
Max Temperature 75 °F 62 °F 87 °F (2004)
Min Temperature 30 °F 34 °F 25 °F (2006)
Degree Days  
Heating Degree Days 12    
Growing Degree Days 2 (Base 50)    
Moisture  
Dew Point 33 °F    
Average Humidity 74    
Maximum Humidity 100    
Minimum Humidity 22    
Precipitation  
Precipitation 0.00 in - - ()
Sea Level Pressure  
Sea Level Pressure 30.29 in    
Wind  
Wind Speed 1 mph (ESE)    
Max Wind Speed 16 mph    
Max Gust Speed 23 mph    
Visibility 6 miles    
Events Fog    
Averages and records for this station are not official NWS values.
T = Trace of Precipitation, MM = Missing Value Source: NWS Daily Summary

Daily Weather History Graph

Daily Weather History Graph

Search for Another Location

Airport or City:

Trip Planner

Search our weather history database for the weather conditions in past years. The results will help you decide how hot, cold, wet, or windy it might be!

Date:

Astronomy

Apr. 30, 2013 Rise Set
Actual Time 5:36 AM EDT 7:46 PM EDT
Civil Twilight 5:05 AM EDT 8:17 PM EDT
Nautical Twilight 4:26 AM EDT 8:56 PM EDT
Astronomical Twilight 3:43 AM EDT 9:40 PM EDT
Moon 12:09 AM EDT (4/30) 9:59 AM EDT (4/30)
Length of Visible Light 15h 12m
Length of Day
14h 09m
Waning Gibbous, 70% of the Moon is Illuminated
Apr 30
Waning Gibbous
May 2
Last Quarter
May 9
New
May 18
First Quarter
May 25
Full

Hourly Weather History & Observations

Time (EDT) Temp. Dew Point Humidity Pressure Visibility Wind Dir Wind Speed Gust Speed Precip Events Conditions
12:54 AM 37.9 °F 35.1 °F 89% 30.26 in 10.0 mi Calm Calm - N/A   Clear
1:54 AM 36.0 °F 34.0 °F 93% 30.26 in 10.0 mi Calm Calm - N/A   Clear
2:54 AM 35.1 °F 34.0 °F 96% 30.26 in 10.0 mi Calm Calm - N/A   Clear
3:11 AM 33.8 °F 33.8 °F 100% 30.25 in 1.5 mi Calm Calm - N/A   Clear
3:21 AM 33.8 °F 33.8 °F 100% 30.25 in 4.0 mi Calm Calm - N/A   Clear
3:41 AM 33.8 °F 33.8 °F 100% 30.26 in 1.8 mi Calm Calm - N/A   Clear
3:48 AM 33.8 °F 33.8 °F 100% 30.26 in 3.0 mi Calm Calm - N/A   Clear
3:54 AM 34.0 °F 33.1 °F 96% 30.27 in 7.0 mi Calm Calm - N/A   Clear
4:45 AM 33.8 °F 32.0 °F 93% 30.27 in 1.8 mi Calm Calm - N/A   Clear
4:54 AM 33.1 °F 32.0 °F 96% 30.28 in 1.2 mi Calm Calm - N/A   Clear
5:00 AM 33.8 °F 32.0 °F 93% 30.28 in 2.0 mi Calm Calm - N/A   Clear
5:07 AM 32.0 °F 32.0 °F 100% 30.28 in 1.2 mi Calm Calm - N/A   Clear
5:16 AM 32.0 °F 30.2 °F 93% 30.28 in 0.8 mi Calm Calm - N/A   Clear
5:23 AM 32.0 °F 30.2 °F 93% 30.28 in 2.0 mi Calm Calm - N/A   Clear
5:27 AM 32.0 °F 30.2 °F 93% 30.28 in 1.0 mi Calm Calm - N/A   Mist
5:31 AM 32.0 °F 30.2 °F 93% 30.28 in 0.2 mi Calm Calm - N/A Fog Fog
5:45 AM 30.2 °F 30.2 °F 100% 30.29 in 0.5 mi Calm Calm - N/A Fog Light Freezing Fog
5:54 AM 30.9 °F 30.9 °F 100% 30.30 in 0.2 mi Calm Calm - N/A Fog Light Freezing Fog
6:02 AM 30.2 °F 30.2 °F 100% 30.29 in 0.2 mi Calm Calm - N/A Fog Light Freezing Fog
6:08 AM 32.0 °F 30.2 °F 93% 30.29 in 1.0 mi Calm Calm - N/A   Clear
6:10 AM 32.0 °F 32.0 °F 100% 30.29 in 2.0 mi Calm Calm - N/A   Clear
6:17 AM 33.8 °F 33.8 °F 100% 30.29 in 8.0 mi Calm Calm - N/A   Clear
6:42 AM 35.6 °F 35.6 °F 100% 30.30 in 3.0 mi Calm Calm - N/A   Clear
6:54 AM 37.9 °F 37.9 °F 100% 30.32 in 10.0 mi Calm Calm - N/A   Clear
7:54 AM 46.9 °F 39.9 °F 77% 30.33 in 10.0 mi Calm Calm - N/A   Clear
8:54 AM 52.0 °F 37.9 °F 59% 30.33 in 10.0 mi Calm Calm - N/A   Clear
9:54 AM 57.9 °F 37.0 °F 46% 30.32 in 10.0 mi Calm Calm - N/A   Clear
10:54 AM 66.0 °F 37.9 °F 36% 30.31 in 10.0 mi Variable 4.6 mph - N/A   Clear
11:54 AM 70.0 °F 36.0 °F 29% 30.29 in 10.0 mi ESE 9.2 mph - N/A   Clear
12:54 PM 72.0 °F 34.0 °F 25% 30.28 in 10.0 mi Variable 5.8 mph - N/A   Clear
1:54 PM 73.0 °F 34.0 °F 24% 30.27 in 10.0 mi SE 8.1 mph - N/A   Clear
2:54 PM 75.0 °F 34.0 °F 22% 30.27 in 10.0 mi ESE 10.4 mph - N/A   Clear
3:54 PM 73.0 °F 34.0 °F 24% 30.26 in 10.0 mi East 16.1 mph 23.0 mph N/A   Clear
4:54 PM 71.1 °F 30.0 °F 22% 30.27 in 10.0 mi ESE 12.7 mph 20.7 mph N/A   Clear
5:54 PM 68.0 °F 28.9 °F 23% 30.29 in 10.0 mi SE 8.1 mph - N/A   Clear
6:54 PM 64.0 °F 28.0 °F 26% 30.31 in 10.0 mi SE 10.4 mph - N/A   Clear
7:54 PM 60.1 °F 28.0 °F 30% 30.33 in 10.0 mi SE 5.8 mph - N/A   Clear
8:54 PM 48.9 °F 36.0 °F 61% 30.36 in 10.0 mi Calm Calm - N/A   Clear
9:54 PM 45.0 °F 35.1 °F 68% 30.37 in 10.0 mi Calm Calm - N/A   Clear
10:54 PM 42.1 °F 34.0 °F 73% 30.38 in 10.0 mi Calm Calm - N/A   Clear
11:54 PM 41.0 °F 35.1 °F 79% 30.38 in 10.0 mi Calm Calm - N/A   Clear